Simultaneous Nadir Overpasses (SNOs) Predictions

Prediction of SNOs between GOES-17 and NPP Satellite Orbit:

Table of predicted SNOs for the next 14.0 days since TLE Epoch: 6/1/2024
Index Date Time (GOES-17) GOES-17 Lat,Lon NPP Lat,Lon Distance(km) Time Diff (sec)
1 06/01/2024 08:39:18 -0.01,-104.71 0.77,-108.12 389.18 80
2 06/02/2024 08:17:52 -0.01,-104.71 -0.29,-103.60 128.20 80
3 06/03/2024 20:39:45 0.01,-104.72 -0.92,-108.88 474.77 80
4 06/04/2024 20:23:39 0.01,-104.72 0.09,-104.35 42.51 80
5 06/07/2024 08:26:38 -0.02,-104.72 0.08,-105.07 39.90 80
6 06/08/2024 08:05:11 -0.02,-104.72 -0.93,-100.53 477.31 80
7 06/09/2024 20:27:05 0.02,-104.73 -0.26,-105.82 125.57 80
8 06/10/2024 20:10:58 0.01,-104.73 0.75,-101.28 392.23 80
9 06/12/2024 08:30:03 -0.00,-104.74 0.42,-106.54 206.34 80
10 06/13/2024 08:13:57 0.00,-104.74 -0.60,-102.01 311.55 80
11 06/14/2024 20:33:10 -0.00,-104.75 -0.58,-107.30 290.80 80
